Sheldon, IA

11:42 AM CDT on September 20, 2017 (GMT -0500)
Sheldon Municipal

Weather History for KSHL - February, 2013

Change the Weather History Date:

Tuesday, February 12, 2013

  Actual Average Record
Temperature  
Mean Temperature 28 °F -  
Max Temperature 37 °F 29 °F 55 °F (1976)
Min Temperature 19 °F 7 °F -27 °F (1988)
Degree Days  
Heating Degree Days 37    
Moisture  
Dew Point 23 °F    
Average Humidity 85    
Maximum Humidity 93    
Minimum Humidity 70    
Precipitation  
Precipitation 0.00 in - - ()
Sea Level Pressure  
Sea Level Pressure 29.93 in    
Wind  
Wind Speed 10 mph (WSW)    
Max Wind Speed 17 mph    
Max Gust Speed 21 mph    
Visibility 10 miles    
Events      
Averages and records for this station are not official NWS values.
T = Trace of Precipitation, MM = Missing Value Source: NWS Daily Summary

Daily Weather History Graph

Daily Weather History Graph

Search for Another Location

Airport or City:

Trip Planner

Search our weather history database for the weather conditions in past years. The results will help you decide how hot, cold, wet, or windy it might be!

Date:

Astronomy

Feb. 12, 2013 Rise Set
Actual Time 7:24 AM CST 5:50 PM CST
Civil Twilight 6:55 AM CST 6:20 PM CST
Nautical Twilight 6:22 AM CST 6:53 PM CST
Astronomical Twilight 5:49 AM CST 7:26 PM CST
Moon 8:16 AM CST (2/12) 8:59 PM CST (2/12)
Length of Visible Light 11h 24m
Length of Day
10h 25m
Waxing Crescent, 7% of the Moon is Illuminated
Feb 12
Waxing Crescent
Feb 17
First Quarter
Feb 25
Full
Mar 4
Last Quarter
Mar 11
New

Hourly Weather History & Observations

Time (CST) Temp. Windchill Dew Point Humidity Pressure Visibility Wind Dir Wind Speed Gust Speed Precip Events Conditions
12:15 AM 24.8 °F 15.3 °F 23.0 °F 93% 30.06 in 10.0 mi WSW 9.2 mph - N/A   Overcast
12:35 AM 26.6 °F 15.7 °F 21.2 °F 80% 30.06 in 10.0 mi West 12.7 mph - N/A   Overcast
12:55 AM 24.8 °F 14.6 °F 21.2 °F 86% 30.06 in 10.0 mi WSW 10.4 mph - N/A   Overcast
1:15 AM 24.8 °F 14.6 °F 21.2 °F 86% 30.06 in 10.0 mi WSW 10.4 mph - N/A   Overcast
1:35 AM 23.0 °F 13.9 °F 19.4 °F 86% 30.06 in 10.0 mi SW 8.1 mph - N/A   Mostly Cloudy
1:55 AM 23.0 °F 13.1 °F 19.4 °F 86% 30.05 in 10.0 mi SW 9.2 mph - N/A   Clear
2:15 AM 21.2 °F 11.7 °F 19.4 °F 93% 30.05 in 10.0 mi SW 8.1 mph - N/A   Clear
2:35 AM 21.2 °F 12.6 °F 19.4 °F 93% 30.05 in 10.0 mi SW 6.9 mph - N/A   Clear
2:55 AM 21.2 °F 14.9 °F 19.4 °F 93% 30.04 in 10.0 mi SW 4.6 mph - N/A   Clear
3:15 AM 21.2 °F 13.6 °F 19.4 °F 93% 30.03 in 10.0 mi SSW 5.8 mph - N/A   Clear
3:35 AM 19.4 °F 11.5 °F 17.6 °F 93% 30.01 in 10.0 mi South 5.8 mph - N/A   Clear
3:55 AM 21.2 °F 11.7 °F 19.4 °F 93% 30.00 in 10.0 mi SSW 8.1 mph - N/A   Clear
4:15 AM 21.2 °F 10.1 °F 19.4 °F 93% 29.99 in 10.0 mi SSW 10.4 mph - N/A   Clear
4:35 AM 21.2 °F 10.9 °F 17.6 °F 86% 29.99 in 10.0 mi SSW 9.2 mph - N/A   Clear
4:55 AM 19.4 °F 8.6 °F 17.6 °F 93% 29.98 in 10.0 mi SSW 9.2 mph - N/A   Clear
5:15 AM 19.4 °F 8.6 °F 17.6 °F 93% 29.98 in 10.0 mi SSW 9.2 mph - N/A   Clear
5:35 AM 19.4 °F 7.9 °F 17.6 °F 93% 29.97 in 10.0 mi SSW 10.4 mph - N/A   Clear
5:55 AM 19.4 °F 7.9 °F 17.6 °F 93% 29.97 in 10.0 mi SSW 10.4 mph - N/A   Clear
6:15 AM 19.4 °F 7.2 °F 17.6 °F 93% 29.97 in 10.0 mi SSW 11.5 mph - N/A   Clear
6:35 AM 19.4 °F 6.6 °F 17.6 °F 93% 29.96 in 10.0 mi SSW 12.7 mph - N/A   Clear
6:55 AM 19.4 °F 6.0 °F 17.6 °F 93% 29.96 in 10.0 mi SSW 13.8 mph - N/A   Clear
7:15 AM 19.4 °F 7.9 °F 17.6 °F 93% 29.96 in 10.0 mi SSW 10.4 mph 16.1 mph N/A   Clear
7:35 AM 19.4 °F 7.9 °F 17.6 °F 93% 29.97 in 10.0 mi SSW 10.4 mph - N/A   Clear
7:55 AM 19.4 °F 7.9 °F 17.6 °F 93% 29.97 in 10.0 mi SSW 10.4 mph - N/A   Clear
8:15 AM 21.2 °F 10.9 °F 17.6 °F 86% 29.97 in 10.0 mi SSW 9.2 mph - N/A   Clear
8:35 AM 21.2 °F 10.1 °F 17.6 °F 86% 29.97 in 10.0 mi SW 10.4 mph - N/A   Clear
8:55 AM 23.0 °F 13.1 °F 19.4 °F 86% 29.96 in 10.0 mi SW 9.2 mph - N/A   Clear
9:15 AM 24.8 °F 14.6 °F 19.4 °F 80% 29.95 in 10.0 mi SW 10.4 mph - N/A   Clear
9:35 AM 24.8 °F 12.9 °F 19.4 °F 80% 29.95 in 10.0 mi SW 13.8 mph - N/A   Clear
9:55 AM 26.6 °F 15.7 °F 21.2 °F 80% 29.95 in 10.0 mi WSW 12.7 mph - N/A   Clear
10:15 AM 26.6 °F 15.7 °F 21.2 °F 80% 29.94 in 10.0 mi WSW 12.7 mph - N/A   Clear
10:35 AM 28.4 °F 18.0 °F 21.2 °F 74% 29.93 in 10.0 mi WSW 12.7 mph - N/A   Clear
10:55 AM 28.4 °F 18.0 °F 21.2 °F 74% 29.93 in 10.0 mi WSW 12.7 mph - N/A   Clear
11:15 AM 30.2 °F 21.3 °F 23.0 °F 75% 29.93 in 10.0 mi WSW 10.4 mph - N/A   Clear
11:35 AM 30.2 °F 20.8 °F 23.0 °F 75% 29.92 in 10.0 mi West 11.5 mph - N/A   Clear
11:55 AM 32.0 °F 23.6 °F 24.8 °F 75% 29.92 in 10.0 mi WSW 10.4 mph - N/A   Clear
12:15 PM 32.0 °F 23.6 °F 24.8 °F 75% 29.92 in 10.0 mi WSW 10.4 mph - N/A   Clear
12:35 PM 32.0 °F 22.5 °F 24.8 °F 75% 29.91 in 10.0 mi WSW 12.7 mph - N/A   Clear
12:55 PM 33.8 °F 25.3 °F 26.6 °F 75% 29.90 in 10.0 mi West 11.5 mph - N/A   Clear
1:15 PM 33.8 °F 25.3 °F 28.4 °F 81% 29.90 in 10.0 mi WSW 11.5 mph 17.3 mph N/A   Clear
1:35 PM 33.8 °F 23.9 °F 26.6 °F 75% 29.90 in 10.0 mi SW 15.0 mph - N/A   Clear
1:55 PM 35.6 °F 26.2 °F 26.6 °F 70% 29.89 in 10.0 mi SW 15.0 mph - N/A   Clear
2:15 PM 35.6 °F 27.5 °F 28.4 °F 75% 29.88 in 10.0 mi SW 11.5 mph - N/A   Clear
2:35 PM 35.6 °F 27.5 °F 28.4 °F 75% 29.87 in 10.0 mi WSW 11.5 mph - N/A   Clear
2:55 PM 37.4 °F 27.8 °F 28.4 °F 70% 29.87 in 10.0 mi WSW 17.3 mph - N/A   Clear
3:15 PM 37.4 °F 29.3 °F 28.4 °F 70% 29.87 in 10.0 mi WSW 12.7 mph - N/A   Clear
3:35 PM 37.4 °F 28.9 °F 30.2 °F 75% 29.86 in 10.0 mi WSW 13.8 mph - N/A   Clear
3:55 PM 37.4 °F 27.8 °F 28.4 °F 70% 29.87 in 10.0 mi WSW 17.3 mph - N/A   Clear
4:15 PM 35.6 °F 25.5 °F 28.4 °F 75% 29.87 in 10.0 mi West 17.3 mph - N/A   Clear
4:35 PM 35.6 °F 25.9 °F 28.4 °F 75% 29.87 in 10.0 mi West 16.1 mph - N/A   Clear
4:55 PM 35.6 °F 26.6 °F 28.4 °F 75% 29.87 in 10.0 mi WNW 13.8 mph 20.7 mph N/A   Clear
5:15 PM 33.8 °F 23.9 °F 26.6 °F 75% 29.87 in 10.0 mi West 15.0 mph - N/A   Clear
5:35 PM 33.8 °F 25.3 °F 28.4 °F 81% 29.88 in 10.0 mi WNW 11.5 mph - N/A   Clear
5:55 PM 32.0 °F 23.6 °F 28.4 °F 87% 29.88 in 10.0 mi WNW 10.4 mph - N/A   Clear
6:15 PM 32.0 °F 21.2 °F 26.6 °F 80% 29.88 in 10.0 mi WNW 16.1 mph - N/A   Clear
6:35 PM 32.0 °F 25.6 °F 26.6 °F 80% 29.89 in 10.0 mi WNW 6.9 mph 15.0 mph N/A   Clear
6:55 PM 30.2 °F 21.9 °F 26.6 °F 86% 29.88 in 10.0 mi WNW 9.2 mph - N/A   Clear
7:15 PM 30.2 °F 21.9 °F 26.6 °F 86% 29.88 in 10.0 mi WNW 9.2 mph - N/A   Clear
7:35 PM 30.2 °F 21.9 °F 26.6 °F 86% 29.87 in 10.0 mi WNW 9.2 mph - N/A   Clear
7:55 PM 30.2 °F 23.4 °F 26.6 °F 86% 29.87 in 10.0 mi WNW 6.9 mph - N/A   Clear
8:15 PM 30.2 °F 21.3 °F 26.6 °F 86% 29.87 in 10.0 mi WNW 10.4 mph - N/A   Clear
8:35 PM 30.2 °F 20.2 °F 26.6 °F 86% 29.86 in 10.0 mi NW 12.7 mph - N/A   Clear
8:55 PM 28.4 °F 19.1 °F 26.6 °F 93% 29.86 in 10.0 mi WNW 10.4 mph - N/A   Clear
9:15 PM 28.4 °F 19.7 °F 26.6 °F 93% 29.86 in 10.0 mi WNW 9.2 mph - N/A   Clear
9:35 PM 28.4 °F 18.5 °F 26.6 °F 93% 29.86 in 10.0 mi WNW 11.5 mph - N/A   Clear
9:55 PM 28.4 °F 20.4 °F 26.6 °F 93% 29.85 in 10.0 mi WNW 8.1 mph - N/A   Clear
10:15 PM 28.4 °F 20.4 °F 26.6 °F 93% 29.85 in 10.0 mi NW 8.1 mph - N/A   Clear
10:35 PM 28.4 °F 20.4 °F 26.6 °F 93% 29.85 in 10.0 mi WNW 8.1 mph - N/A   Clear
10:55 PM 28.4 °F 20.4 °F 24.8 °F 86% 29.85 in 10.0 mi WNW 8.1 mph - N/A   Clear
11:15 PM 26.6 °F 19.1 °F 24.8 °F 93% 29.85 in 10.0 mi NW 6.9 mph - N/A   Clear
11:35 PM 26.6 °F 21.2 °F 24.8 °F 93% 29.85 in 10.0 mi NW 4.6 mph - N/A   Clear
11:55 PM 26.6 °F 21.2 °F 24.8 °F 93% 29.84 in 10.0 mi NW 4.6 mph - N/A   Clear